DW1196 Weather Reports


time (UTC)temp
C
wind
direction
speed
KPH
gust
KPH
rain 1hr
cm
rain 24hr
cm
rain mn
cm
humidity
%
barometer
mb
20260510000103 18 330 3.2 4.8 0.00 0.00 0.00 68 1029.9
20260509235604 17 335 4.8 9.7 0.00 0.00 0.00 69 1029.9
20260509234104 16 337 4.8 9.7 0.00 0.00 0.00 71 1029.9
20260509233604 16 291 1.6 8.0 0.00 0.00 0.00 72 1029.9
20260509232104 15 291 4.8 11.3 0.00 0.00 0.00 74 1029.8
20260509231604 15 306 3.2 11.3 0.00 0.00 0.00 75 1030.0
20260509231105 15 291 3.2 11.3 0.00 0.00 0.00 75 1029.9
20260509230604 15 290 4.8 4.8 0.00 0.00 0.00 76 1030.0
20260509225604 14 327 3.2 9.7 0.00 0.00 0.00 79 1030.0
20260509225104 13 328 4.8 9.7 0.00 0.00 0.00 79 1029.9
20260509224605 13 298 4.8 8.0 0.00 0.00 0.00 79 1029.9
20260509224104 13 290 4.8 8.0 0.00 0.00 0.00 80 1029.9
20260509223603 13 305 4.8 8.0 0.00 0.00 0.00 80 1029.9
20260509223103 13 287 3.2 8.0 0.00 0.00 0.00 82 1029.8
20260509222603 12 312 3.2 4.8 0.00 0.00 0.00 83 1029.8
20260509222104 12 296 4.8 9.7 0.00 0.00 0.00 84 1029.9
20260509221104 12 318 4.8 9.7 0.00 0.00 0.00 86 1029.7
20260509220604 11 300 3.2 4.8 0.00 0.00 0.00 86 1029.6
20260509220104 11 300 3.2 4.8 0.00 0.00 0.00 87 1029.7
20260509215604 11 297 4.8 4.8 0.00 0.00 0.00 88 1029.7
20260509215104 11 298 4.8 8.0 0.00 0.00 0.00 88 1029.5
20260509214604 10 286 6.4 9.7 0.00 0.00 0.00 89 1029.4
20260509214103 10 287 4.8 11.3 0.00 0.00 0.00 89 1029.4
20260509213604 10 294 4.8 8.0 0.00 0.00 0.00 89 1029.5
20260509213104 10 297 3.2 4.8 0.00 0.00 0.00 90 1029.4
20260509212104 10 304 3.2 4.8 0.00 0.00 0.00 91 1029.3
20260509211103 10 304 1.6 3.2 0.00 0.00 0.00 91 1029.2
20260509210604 9 296 1.6 4.8 0.00 0.00 0.00 91 1029.1
20260509205604 9 299 3.2 4.8 0.00 0.00 0.00 91 1029.1
20260509205104 9 299 3.2 4.8 0.00 0.00 0.00 91 1029.0
20260509204604 9 266 1.6 4.8 0.00 0.00 0.00 90 1028.9
20260509204104 9 325 3.2 4.8 0.00 0.00 0.00 90 1028.9
20260509203104 9 336 3.2 4.8 0.00 0.00 0.00 90 1028.8
20260509202604 9 309 3.2 4.8 0.00 0.00 0.00 90 1028.8
20260509202104 9 309 4.8 4.8 0.00 0.00 0.00 90 1028.7
20260509201604 9 282 3.2 4.8 0.00 0.00 0.00 90 1028.7
20260509201104 9 282 3.2 4.8 0.00 0.00 0.00 90 1028.6
20260509200604 9 282 3.2 4.8 0.00 0.00 0.00 90 1028.5
20260509200104 9 282 1.6 3.2 0.00 0.00 0.00 90 1028.5
20260509195604 9 282 3.2 4.8 0.00 0.00 0.00 90 1028.5
20260509195104 10 286 3.2 4.8 0.00 0.00 0.00 90 1028.4
20260509194604 9 311 1.6 4.8 0.00 0.00 0.00 90 1028.2
20260509194104 9 311 0.0 1.6 0.00 0.00 0.00 90 1028.2
20260509193604 9 311 1.6 1.6 0.00 0.00 0.00 90 1028.2
20260509193104 9 311 0.0 1.6 0.00 0.00 0.00 90 1028.1
20260509192604 9 311 0.0 3.2 0.00 0.00 0.00 90 1028.0
20260509191604 10 311 1.6 1.6 0.00 0.00 0.00 90 1027.8
20260509191104 10 311 1.6 3.2 0.00 0.00 0.00 90 1027.7
20260509190604 10 310 0.0 1.6 0.00 0.00 0.00 90 1027.7
20260509185604 10 311 3.2 4.8 0.00 0.00 0.00 90 1027.5
20260509185104 10 310 3.2 4.8 0.00 0.00 0.00 90 1027.5
20260509184604 10 311 3.2 4.8 0.00 0.00 0.00 90 1027.5
20260509183604 10 311 3.2 4.8 0.00 0.00 0.00 90 1027.5
20260509183103 10 310 3.2 4.8 0.00 0.00 0.00 90 1027.4
20260509182604 10 311 3.2 4.8 0.00 0.00 0.00 90 1027.4
20260509182104 10 256 1.6 4.8 0.00 0.00 0.00 89 1027.3
20260509181604 10 256 3.2 4.8 0.00 0.00 0.00 89 1027.2
20260509181104 10 256 1.6 4.8 0.00 0.00 0.00 89 1027.3
20260509180604 10 256 0.0 1.6 0.00 0.00 0.00 89 1027.3
20260509180104 10 256 0.0 0.0 0.00 0.00 0.00 89 1027.3
20260509175604 10 256 0.0 1.6 0.00 0.00 0.00 89 1027.3
20260509175104 10 256 1.6 3.2 0.00 0.00 0.00 89 1027.2
20260509174604 10 256 1.6 1.6 0.00 0.00 0.00 89 1027.2
20260509174104 10 256 1.6 3.2 0.00 0.00 0.00 89 1027.2
20260509173604 10 256 1.6 3.2 0.00 0.00 0.00 89 1027.2
20260509173104 10 256 0.0 1.6 0.00 0.00 0.00 89 1027.1
20260509172605 10 256 1.6 3.2 0.00 0.00 0.00 89 1027.1
20260509172103 10 256 1.6 3.2 0.00 0.00 0.00 89 1027.2
20260509171104 10 256 1.6 3.2 0.00 0.00 0.00 89 1027.1
20260509170604 10 256 3.2 4.8 0.00 0.00 0.00 89 1027.2
20260509170104 10 256 3.2 4.8 0.00 0.00 0.00 89 1027.1
20260509165604 10 256 3.2 4.8 0.00 0.00 0.00 89 1027.1
20260509165104 10 256 1.6 3.2 0.00 0.00 0.00 88 1027.2
20260509164604 10 256 1.6 3.2 0.00 0.00 0.00 88 1027.2
20260509163603 10 256 1.6 3.2 0.00 0.00 0.00 88 1027.2
20260509163104 10 256 1.6 3.2 0.00 0.00 0.00 88 1027.1
20260509162605 10 256 1.6 3.2 0.00 0.00 0.00 88 1027.2
20260509162104 10 256 1.6 3.2 0.00 0.00 0.00 88 1027.2
20260509161604 11 256 1.6 1.6 0.00 0.00 0.00 87 1027.3
20260509161104 11 256 1.6 3.2 0.00 0.00 0.00 87 1027.3
20260509160104 11 256 0.0 1.6 0.00 0.00 0.00 87 1027.3
20260509155604 11 256 0.0 1.6 0.00 0.00 0.00 87 1027.2
20260509155104 11 256 0.0 0.0 0.00 0.00 0.00 87 1027.2
20260509154604 11 256 0.0 1.6 0.00 0.00 0.00 87 1027.2
20260509154105 11 256 0.0 1.6 0.00 0.00 0.00 87 1027.2
20260509153604 11 256 1.6 3.2 0.00 0.00 0.00 87 1027.2
20260509153104 11 256 1.6 3.2 0.00 0.00 0.00 87 1027.2
20260509152604 11 256 3.2 4.8 0.00 0.00 0.00 87 1027.1
20260509152104 11 256 3.2 4.8 0.00 0.00 0.00 87 1027.2
20260509151604 11 256 3.2 4.8 0.00 0.00 0.00 87 1027.3
20260509151104 11 257 4.8 8.0 0.00 0.00 0.00 87 1027.3
20260509150604 11 265 4.8 8.0 0.00 0.00 0.00 87 1027.3
20260509150104 11 247 4.8 8.0 0.00 0.00 0.00 87 1027.3
20260509145604 11 260 4.8 8.0 0.00 0.00 0.00 87 1027.3
20260509145103 11 256 3.2 8.0 0.00 0.00 0.00 87 1027.2
20260509144603 11 243 3.2 4.8 0.00 0.00 0.00 87 1027.2
20260509144104 11 243 3.2 4.8 0.00 0.00 0.00 87 1027.2
20260509143603 11 243 1.6 4.8 0.00 0.00 0.00 86 1027.2
20260509143103 11 243 1.6 4.8 0.00 0.00 0.00 86 1027.2
20260509142604 11 243 3.2 4.8 0.00 0.00 0.00 87 1027.2
20260509142104 11 243 4.8 8.0 0.00 0.00 0.00 87 1027.2
20260509141604 11 243 3.2 4.8 0.00 0.00 0.00 87 1027.1
20260509141105 11 243 3.2 4.8 0.00 0.00 0.00 86 1027.1
20260509140104 11 243 3.2 8.0 0.00 0.00 0.00 86 1027.2
20260509135604 11 243 3.2 4.8 0.00 0.00 0.00 87 1027.2
20260509135105 11 243 1.6 4.8 0.00 0.00 0.00 87 1027.3
20260509134604 11 243 1.6 4.8 0.00 0.00 0.00 86 1027.3
20260509133604 11 243 3.2 4.8 0.00 0.00 0.00 86 1027.3
20260509133104 11 243 1.6 4.8 0.00 0.00 0.00 86 1027.3
20260509132604 11 243 3.2 4.8 0.00 0.00 0.00 86 1027.3
20260509132104 11 243 1.6 4.8 0.00 0.00 0.00 86 1027.3
20260509131604 11 243 3.2 4.8 0.00 0.00 0.00 86 1027.4
20260509130604 11 243 3.2 4.8 0.00 0.00 0.00 86 1027.3
20260509130104 11 243 3.2 4.8 0.00 0.00 0.00 86 1027.3
20260509125604 11 243 3.2 4.8 0.00 0.00 0.00 86 1027.3
20260509125104 11 243 1.6 3.2 0.00 0.00 0.00 85 1027.4
20260509124604 11 243 0.0 3.2 0.00 0.00 0.00 85 1027.4
20260509123605 12 243 3.2 4.8 0.00 0.00 0.00 84 1027.4
20260509123104 12 243 3.2 4.8 0.00 0.00 0.00 84 1027.3
20260509122604 12 241 4.8 8.0 0.00 0.00 0.00 84 1027.4
20260509122104 12 251 3.2 4.8 0.00 0.00 0.00 84 1027.4
20260509121604 12 251 3.2 4.8 0.00 0.00 0.00 84 1027.5
20260509121104 12 251 3.2 4.8 0.00 0.00 0.00 83 1027.5
20260509120104 12 251 3.2 4.8 0.00 0.00 0.00 83 1027.5
20260509115604 12 251 3.2 4.8 0.00 0.00 0.00 83 1027.5
20260509115105 12 251 3.2 4.8 0.00 0.00 0.00 83 1027.4
20260509114604 12 251 3.2 4.8 0.00 0.00 0.00 83 1027.4
20260509114104 12 251 3.2 4.8 0.00 0.00 0.00 83 1027.4
20260509113604 12 248 3.2 4.8 0.00 0.00 0.00 83 1027.4
20260509113104 12 235 4.8 4.8 0.00 0.00 0.00 83 1027.3
20260509112604 12 227 3.2 4.8 0.00 0.00 0.00 83 1027.4
20260509112104 12 227 3.2 4.8 0.00 0.00 0.00 82 1027.3
20260509111605 12 227 3.2 4.8 0.00 0.00 0.00 82 1027.4
20260509111105 12 221 4.8 4.8 0.00 0.00 0.00 82 1027.4
20260509110105 13 221 3.2 4.8 0.00 0.00 0.00 81 1027.2
20260509105605 13 221 3.2 4.8 0.00 0.00 0.00 81 1027.2
20260509105104 13 221 3.2 4.8 0.00 0.00 0.00 80 1027.2
20260509104603 13 221 1.6 4.8 0.00 0.00 0.00 80 1027.3
20260509104108 13 221 3.2 4.8 0.00 0.00 0.00 80 1027.3
20260509103604 13 220 3.2 4.8 0.00 0.00 0.00 79 1027.3
20260509103104 13 221 3.2 4.8 0.00 0.00 0.00 79 1027.2
20260509102604 13 221 1.6 4.8 0.00 0.00 0.00 79 1027.1
20260509102105 13 221 3.2 4.8 0.00 0.00 0.00 78 1026.9
20260509101604 13 221 3.2 4.8 0.00 0.00 0.00 78 1026.9
20260509101105 14 221 3.2 4.8 0.00 0.00 0.00 78 1026.8
20260509100105 14 220 4.8 4.8 0.00 0.00 0.00 77 1026.9
20260509095604 15 221 3.2 4.8 0.00 0.00 0.00 76 1026.8
20260509095105 15 99 1.6 4.8 0.00 0.00 0.00 76 1026.8
20260509094605 15 99 3.2 4.8 0.00 0.00 0.00 76 1026.7
20260509093605 15 99 1.6 3.2 0.00 0.00 0.00 75 1026.6
20260509093104 15 99 1.6 3.2 0.00 0.00 0.00 75 1026.7
20260509092604 15 99 1.6 3.2 0.00 0.00 0.00 75 1026.6
20260509092104 15 99 0.0 1.6 0.00 0.00 0.00 74 1026.5
20260509091604 15 99 0.0 1.6 0.00 0.00 0.00 74 1026.5
20260509091104 15 99 0.0 1.6 0.00 0.00 0.00 73 1026.3
20260509090104 15 99 1.6 3.2 0.00 0.00 0.00 73 1026.2
20260509085605 16 99 1.6 4.8 0.00 0.00 0.00 72 1026.1
20260509085103 16 99 1.6 4.8 0.00 0.00 0.00 72 1026.0
20260509084604 16 99 1.6 3.2 0.00 0.00 0.00 72 1026.0
20260509084104 16 99 0.0 0.0 0.00 0.00 0.00 71 1025.9
20260509083604 16 99 0.0 1.6 0.00 0.00 0.00 71 1025.7
20260509083104 16 99 1.6 3.2 0.00 0.00 0.00 70 1025.6
20260509082603 16 99 1.6 3.2 0.00 0.00 0.00 70 1025.6
20260509081104 16 99 1.6 4.8 0.00 0.00 0.00 69 1025.3
20260509080604 17 99 1.6 4.8 0.00 0.00 0.00 68 1025.3
20260509080104 17 99 0.0 1.6 0.00 0.00 0.00 68 1025.2
20260509075104 17 99 1.6 4.8 0.00 0.00 0.00 68 1025.1
20260509074604 17 99 3.2 4.8 0.00 0.00 0.00 67 1025.0
20260509074104 17 99 1.6 3.2 0.00 0.00 0.00 67 1025.0
20260509073605 17 99 1.6 3.2 0.00 0.00 0.00 67 1025.0
20260509073104 17 99 1.6 4.8 0.00 0.00 0.00 66 1024.9
20260509072604 17 99 1.6 4.8 0.00 0.00 0.00 66 1024.9
20260509072104 17 99 1.6 4.8 0.00 0.00 0.00 66 1024.9
20260509071104 17 106 4.8 11.3 0.00 0.00 0.00 65 1024.8
20260509070604 17 105 6.4 11.3 0.00 0.00 0.00 64 1024.7
20260509070104 18 108 8.0 14.5 0.00 0.00 0.00 64 1024.7
20260509065603 18 109 8.0 14.5 0.00 0.00 0.00 63 1024.7
20260509065104 18 106 4.8 12.9 0.00 0.00 0.00 63 1024.6
20260509064603 18 112 9.7 14.5 0.00 0.00 0.00 62 1024.6
20260509064103 18 106 9.7 16.1 0.00 0.00 0.00 62 1024.5
20260509063603 18 105 12.9 20.9 0.00 0.00 0.00 62 1024.4
20260509062603 18 116 8.0 12.9 0.00 0.00 0.00 62 1024.4
20260509062103 18 88 8.0 19.3 0.00 0.00 0.00 61 1024.3
20260509061604 19 112 11.3 19.3 0.00 0.00 0.00 61 1024.3
20260509061103 19 83 9.7 19.3 0.00 0.00 0.00 61 1024.2
20260509060603 19 82 12.9 19.3 0.00 0.00 0.00 60 1024.2
20260509060103 19 92 12.9 19.3 0.00 0.00 0.00 60 1024.0
20260509055603 19 107 12.9 20.9 0.00 0.00 0.00 59 1024.0
20260509054603 20 98 11.3 22.5 0.00 0.00 0.00 58 1023.9
20260509053604 20 121 11.3 19.3 0.00 0.00 0.00 57 1023.8
20260509053104 20 90 11.3 19.3 0.00 0.00 0.00 57 1023.8
20260509052104 20 70 11.3 20.9 0.00 0.00 0.00 57 1023.7
20260509051604 20 78 11.3 20.9 0.00 0.00 0.00 56 1023.7
20260509051104 20 86 14.5 20.9 0.00 0.00 0.00 56 1023.7
20260509050604 20 99 14.5 19.3 0.00 0.00 0.00 56 1023.7
20260509045604 21 84 16.1 22.5 0.00 0.00 0.00 55 1023.6
20260509043604 21 77 9.7 19.3 0.00 0.00 0.00 54 1023.5
20260509043104 21 83 14.5 19.3 0.00 0.00 0.00 53 1023.5
20260509042604 21 70 8.0 14.5 0.00 0.00 0.00 53 1023.5
20260509042104 21 290 1.6 4.8 0.00 0.00 0.00 47 1023.5
20260509041604 22 290 3.2 9.7 0.00 0.00 0.00 47 1023.4
20260509041104 22 273 4.8 11.3 0.00 0.00 0.00 47 1023.4
20260509040604 22 271 4.8 12.9 0.00 0.00 0.00 46 1023.4
20260509040104 22 295 3.2 9.7 0.00 0.00 0.00 48 1023.4
20260509035605 21 295 3.2 11.3 0.00 0.00 0.00 48 1023.5
20260509034604 21 294 9.7 12.9 0.00 0.00 0.00 47 1023.5
20260509033103 22 271 4.8 11.3 0.00 0.00 0.00 47 1023.6
20260509032604 21 244 1.6 4.8 0.00 0.00 0.00 48 1023.6
20260509031604 21 39 4.8 8.0 0.00 0.00 0.00 48 1023.7
20260509031104 21 336 1.6 11.3 0.00 0.00 0.00 47 1023.7
20260509030605 21 312 4.8 12.9 0.00 0.00 0.00 48 1023.8
20260509030104 21 255 3.2 9.7 0.00 0.00 0.00 48 1023.9
20260509025604 21 289 4.8 11.3 0.00 0.00 0.00 48 1023.9
20260509025104 21 304 8.0 16.1 0.00 0.00 0.00 48 1024.0
20260509024604 21 292 4.8 11.3 0.00 0.00 0.00 48 1024.0
20260509024104 21 291 4.8 11.3 0.00 0.00 0.00 48 1024.1
20260509023604 21 290 1.6 4.8 0.00 0.00 0.00 48 1024.1
20260509023104 21 264 1.6 4.8 0.00 0.00 0.00 48 1024.2
20260509022604 21 264 1.6 8.0 0.00 0.00 0.00 48 1024.3
20260509022104 20 242 4.8 11.3 0.00 0.00 0.00 49 1024.3
20260509021604 21 250 8.0 11.3 0.00 0.00 0.00 49 1024.5
20260509020104 20 271 8.0 16.1 0.00 0.00 0.00 49 1024.9
20260509015604 20 258 3.2 12.9 0.00 0.00 0.00 49 1025.0
20260509015104 20 271 6.4 14.5 0.00 0.00 0.00 50 1025.0
20260509013604 20 135 3.2 12.9 0.00 0.00 0.00 51 1025.1
20260509013104 20 247 4.8 12.9 0.00 0.00 0.00 51 1025.2
20260509012604 20 274 4.8 11.3 0.00 0.00 0.00 52 1025.2
20260509011604 20 282 3.2 9.7 0.00 0.00 0.00 53 1025.2
20260509010604 18 241 4.8 12.9 0.00 0.00 0.00 55 1025.3
20260509005104 19 178 4.8 11.3 0.00 0.00 0.00 56 1025.7
20260509004603 19 173 3.2 8.0 0.00 0.00 0.00 56 1025.6
20260509004104 18 299 4.8 11.3 0.00 0.00 0.00 57 1025.7
20260509002604 18 298 6.4 11.3 0.00 0.00 0.00 58 1025.8
20260509002104 18 290 1.6 12.9 0.00 0.00 0.00 61 1025.8
20260509001604 17 273 8.0 14.5 0.00 0.00 0.00 61 1025.8
20260509001104 17 253 9.7 19.3 0.00 0.00 0.00 60 1025.7
20260509000604 17 243 4.8 12.9 0.00 0.00 0.00 61 1025.9